Preview of NWS' New Version of Forecast
This preview is not operational and should not be used for support decisions.

Regional Weather Roundup (RWR)

Issued by National Weather Service (NWS)

                            
000
ASUS45 KBOI 160510
RWRID 

IDAHO REGIONAL WEATHER ROUNDUP
NATIONAL WEATHER SERVICE BOISE ID
1100 PM MDT SUN SEP 15 2019

NOTE: "FAIR" INDICATES FEW OR NO CLOUDS BELOW 12000 FEET
WITH NO SIGNIFICANT WEATHER AND/OR OBSTRUCTIONS TO VISIBILITY

IDZ012-014-160600-
SOUTHWEST IDAHO

  
CITY           SKY/WX    TMP DP  RH WIND       PRES   REMARKS
BOISE          CLOUDY    74  29  19 S5        29.67R                  
CALDWELL       CLOUDY    79  30  16 S10       29.64R                  
MOUNTAIN HOME  CLOUDY    72  26  18 SE6       29.70R                  
$$

IDZ016-017-160600-
SOUTHCENTRAL IDAHO

  
CITY           SKY/WX    TMP DP  RH WIND       PRES   REMARKS
BURLEY         MOCLDY    60  45  57 CALM      29.77F                  
JEROME         MOCLDY    65  38  36 CALM      29.78F                  
TWIN FALLS     MOCLDY    65  37  35 SW8       29.79F                  
$$

IDZ019>023-160600-
SOUTHEAST IDAHO

  
CITY           SKY/WX    TMP DP  RH WIND       PRES   REMARKS
IDAHO FALLS    PTCLDY    59  36  42 NE3       29.88S                  
POCATELLO      MOCLDY    74  21  13 S12       29.83F                  
REXBURG        CLEAR     71  28  20 S9        29.88F                  
$$

IDZ006-010-011-018-031-032-160600-
CENTRAL IDAHO MOUNTAINS

  
CITY           SKY/WX    TMP DP  RH WIND       PRES   REMARKS
MCCALL         PTCLDY    55  31  39 NE3       29.76F                  
HAILEY         CLEAR     57  36  44 NW7       29.90S                  
STANLEY          N/A     56  25  30 SE9       29.92F                  
SALMON         CLEAR     58  31  35 N6        29.75S                  
CHALLIS        PTCLDY    61  29  29 N3        29.82F                  
$$

IDZ002-004-006-007-026-160600-
NORTHERN IDAHO

  
CITY           SKY/WX    TMP DP  RH WIND       PRES   REMARKS
LEWISTON       CLOUDY    66  46  48 W9        29.75S                  
LOWELL           N/A     60  54  80 CALM      29.72R                  
COEUR D'ALENE  CLOUDY    60  47  61 W7        29.76S                  
MULLAN PASS    PTCLDY    48  40  73 NW8       29.83F                  
$$